Location: Moos
(47.3500°N, 11.1167°E)
Time: 04:09:27
(UTC+00:00)

Daily predictions for brighter satellites

Satellite Brightness Start Highest point End
(mag) Time Altitude Azimuth Time Altitude Azimuth Time Altitude Azimuth
Cosmos 1674 Rocket 4.1 00:06:25 41° SE 00:07:16 47° E 00:11:28 10° NNE
Cosmos 2322 Rocket 3.0 00:05:15 26° WSW 00:08:00 43° NW 00:13:21 10° NNE
USA 267 4.5 00:10:31 22° WSW 00:10:31 22° WSW 00:14:56 10° WNW
Cosmos 1818 3.4 00:05:20 10° NW 00:10:49 77° SW 00:12:49 40° SSE
Cosmos 1242 Rocket 2.4 00:07:30 10° N 00:11:04 86° NNE 00:11:04 86° NNE
ATLAS CENTAUR R/B 1.8 00:09:10 10° NW 00:14:05 78° NE 00:16:19 31° SE
Cosmos 2151 Rocket 3.5 00:10:33 10° N 00:14:59 86° E 00:15:52 57° SSE
USA 290 3.8 00:16:07 26° E 00:16:07 26° E 00:18:34 10° NE
EO 1 Delta rocket 4.1 00:14:49 10° NNE 00:19:23 58° E 00:20:52 39° SSE
Okean 2 Rocket 3.1 00:16:14 10° NNW 00:20:46 73° W 00:21:36 56° SSW
Cosmos 372 Rocket 4.0 00:19:41 44° SW 00:21:14 70° WNW 00:26:24 10° NNE
ADEOS Rocket 4.1 00:20:34 22° WSW 00:21:38 23° W 00:26:05 10° NW
SL-14 R/B 4.4 00:20:59 31° ESE 00:21:51 35° E 00:25:25 10° NNE
Meteor 1-16 Rocket 4.4 00:17:11 10° N 00:23:09 74° ENE 00:26:15 30° SSE
SL-08 R/B 4.5 00:17:26 10° NNW 00:23:39 72° W 00:26:13 37° SSW
GP-B 3.8 00:21:28 10° NNE 00:25:46 47° E 00:27:23 32° SE
Cosmos 1953 2.8 00:22:10 10° N 00:26:08 54° ENE 00:27:20 38° SE
Cosmos 1844 Rocket 3.5 00:21:51 10° NW 00:26:43 31° WSW 00:27:19 30° WSW
Cosmos 1378 Rocket 3.6 00:25:44 51° SSE 00:26:45 73° E 00:31:10 10° NNE
Cosmos 1844 4.4 00:22:38 10° NW 00:27:56 37° WSW 00:28:57 35° SW
Meteor 1-21 4.5 00:26:51 38° SW 00:29:01 63° WNW 00:34:49 10° N
Cosmos 1937 Rocket 4.3 00:29:41 29° WSW 00:31:48 43° WNW 00:36:49 10° NNE
Cosmos 1417 Rocket 4.4 00:29:51 37° S 00:32:35 86° W 00:38:50 10° N
Cosmos 1758 3.7 00:29:31 10° NNW 00:33:18 45° W 00:33:27 45° W
NOSS 3-1 (A) 4.2 00:26:58 10° NW 00:34:20 75° NE 00:43:03 10° SE
Sich 1 Rocket 4.1 00:31:12 10° NNW 00:35:19 40° W 00:35:48 38° WSW
Cosmos 1674 2.9 00:36:19 50° W 00:36:36 51° WNW 00:40:16 10° N
Resurs 1-4 Rocket 2.7 00:31:47 10° NNE 00:36:54 49° E 00:39:18 29° SSE
Okean 2 3.9 00:39:06 41° WSW 00:39:45 45° WNW 00:43:42 10° N
CZ-4C R/B 3.0 00:33:50 10° NW 00:41:02 86° NE 00:49:33 10° SE
Cosmos 1707 4.0 00:40:54 27° W 00:41:25 28° WNW 00:44:48 10° NNW
Cosmos 2219 Rocket 2.2 00:39:12 37° SW 00:41:28 77° WNW 00:47:06 10° NNE
SL-16 R/B 4.1 00:38:47 10° W 00:43:05 22° NW 00:47:25 10° N
Cosmos 220 Rocket 3.8 00:44:38 52° SSW 00:45:39 86° ESE 00:49:52 10° NNE
Cosmos 1437 Rocket 2.5 00:42:01 10° N 00:45:49 88° ENE 00:46:36 55° SSE
NOSS 3-1 (C) 4.0 00:38:23 10° NW 00:45:49 69° SW 00:54:33 10° SSE
COSMOS 2428 2.7 00:44:03 37° SSW 00:46:26 85° ESE 00:52:09 10° NNE
ATLAS 3B R/B 4.0 00:42:15 10° WNW 00:47:46 23° WSW 00:48:51 22° WSW
MOS 1 Rocket 4.2 00:46:53 14° SE 00:50:15 41° ENE 00:54:16 10° N
Cosmos 1709 Rocket 4.0 00:44:49 10° N 00:51:01 80° E 00:55:03 23° SSE
Meteor 2-12 Rocket 4.4 00:48:30 10° N 00:54:38 86° W 00:58:14 26° S
MOZ.5/SAFIR/RUBIN 5/SL-8 4.1 00:53:59 39° SW 00:55:13 49° W 00:59:50 10° NNW
Cosmos 1626 2.9 00:55:39 35° W 00:56:06 36° WNW 00:59:32 10° N
Cosmos 839 Rocket 4.3 00:49:59 10° NNW 00:56:17 76° NE 01:03:38 10° SE
S3M 4.1 00:54:27 31° SSW 00:57:38 70° W 01:04:02 10° N
Cosmos 2237 Rocket 3.0 00:57:20 24° SSE 01:00:22 43° ESE 01:05:44 10° NE
NOSS 2-2 (D) 4.5 00:58:13 10° NW 01:03:10 74° NE 01:10:10 10° SE
ADEOS II 2.8 01:00:18 10° NNE 01:05:23 47° E 01:08:45 20° SSE
Cosmos 1025 Rocket 4.1 01:05:05 19° SSE 01:07:41 39° E 01:11:44 10° NNE
Cosmos 2150 Rocket 4.0 01:06:08 31° S 01:08:40 74° ESE 01:13:51 10° NNE
Cosmos 1300 2.5 01:06:45 10° NNW 01:10:33 79° W 01:11:51 39° S
Cosmos 405 Rocket 3.3 01:10:48 35° WSW 01:11:36 40° WNW 01:15:09 10° N
Okean 1 Rocket 3.5 01:11:16 10° NNW 01:15:26 43° W 01:16:47 33° SW
IDEFIX/ARIANE 42P 3.3 01:11:58 10° NNE 01:17:06 49° E 01:20:55 17° S
Cosmos 2360 Rocket 3.9 01:13:37 11° W 01:17:52 23° NW 01:22:21 10° N
ATLAS 5 CENTAUR R/B 3.1 01:09:09 10° NW 01:18:22 36° WSW 01:19:49 29° SW
Cosmos 1461 2.9 01:16:50 10° NW 01:20:54 56° WSW 01:23:29 22° SSE
Meteor 2-10 Rocket 3.7 01:17:13 10° NNW 01:23:01 80° W 01:27:14 18° S
Cosmos 332 Rocket 4.3 01:24:05 22° S 01:27:00 52° ESE 01:31:41 10° NNE
CZ-2D R/B 2.2 01:22:03 10° N 01:27:27 67° WNW 01:30:34 25° SSW
Cosmos 2278 Rocket 2.1 01:22:54 10° NNW 01:28:34 69° WSW 01:34:11 10° SSE
Meteor 2-5 Rocket 4.0 01:27:36 18° S 01:32:02 69° E 01:37:45 10° NNE
SME Rocket 4.1 01:32:57 24° WSW 01:33:39 25° W 01:37:15 10° NW
Cosmos 1867 3.7 01:30:59 24° SW 01:34:21 68° NW 01:39:50 10° NNE
USA 305 4.0 01:33:23 22° S 01:35:04 30° SE 01:38:44 10° ENE
Gblst 52 Del rocket 4.5 01:30:00 11° W 01:35:41 67° NNW 01:41:10 10° ENE
Meteor 1-24 Rocket 4.1 01:31:03 16° S 01:35:41 64° E 01:41:12 10° NNE
Cosmos 2333 Rocket 3.7 01:33:18 13° W 01:37:27 27° NW 01:42:15 10° N
Cosmos 1125 Rocket 3.7 01:37:42 24° SW 01:40:46 60° WNW 01:45:56 10° NNE
SL-16 R/B 2.8 01:37:47 18° S 01:42:16 51° W 01:48:20 10° NNW
YAOGAN 11 4.3 01:39:55 23° SSW 01:42:25 50° W 01:46:47 10° NNW
ERBS 4.2 01:42:06 14° SSE 01:43:11 16° SE 01:45:10 10° E
SL-16 R/B 3.5 01:38:23 10° SSE 01:43:21 33° ESE 01:48:21 10° NE
Cosmos 1943 Rocket 3.1 01:40:00 10° NNW 01:45:33 52° ENE 01:51:04 10° SE
EO 1 Del DPAF 2.9 01:43:07 10° NNE 01:46:40 87° WNW 01:48:39 24° SSW
CRYOSAT 2 4.3 01:43:57 14° S 01:48:06 84° W 01:53:01 10° N
Cosmos 2298 Rocket 4.5 01:45:28 21° SW 01:48:48 51° WNW 01:53:59 10° NNE
USA 290 4.2 01:48:51 16° W 01:50:12 19° WNW 01:52:39 10° N
Cosmos 1980 3.7 01:46:55 21° SW 01:50:49 77° WNW 01:56:30 10° NNE
ATLAS CENTAUR R/B 3.3 01:49:15 10° WNW 01:52:15 17° WSW 01:52:17 17° WSW
Cosmos 2154 Rocket 4.5 01:46:26 10° N 01:52:46 65° ENE 01:59:02 10° SSE
AQUA 4.2 01:51:43 10° N 01:56:21 52° WNW 01:59:33 19° SW
USA 229 DEB 4.1 01:51:28 10° NW 01:58:38 54° WSW 02:06:12 10° SSE
USA 229 4.1 01:51:34 10° NW 01:58:44 54° WSW 02:06:18 10° SSE
OE (NEXTSAT) 4.4 01:57:23 15° W 01:59:54 47° SSW 02:03:07 10° ESE
Cosmos 1455 Rocket 3.6 01:55:45 10° NNW 01:59:59 43° W 02:03:00 17° SSW
Cosmos 1953 4.3 01:59:54 10° NW 02:01:57 14° W 02:02:56 13° W
IRS-1D 3.8 01:56:54 10° NNE 02:02:17 74° ESE 02:07:26 11° S
Helios 1A 3.4 02:02:52 16° SSW 02:05:59 44° W 02:10:02 10° NNW
Cosmos 1536 Rocket 4.1 02:01:53 10° S 02:06:15 58° E 02:10:35 10° NNE
MSX 3.8 02:00:37 10° NNE 02:06:24 86° WNW 02:11:47 12° SSW
Lacrosse 5 rocket 3.9 02:06:51 10° SE 02:07:48 11° ESE 02:08:45 10° ESE
MOS 1-B Rocket 4.4 02:02:22 10° SSE 02:07:57 62° ENE 02:13:32 10° N
Cosmos 371 Rocket 4.1 02:04:37 17° WSW 02:08:01 38° WNW 02:12:34 10° N
NPP 4.5 02:04:10 10° N 02:09:05 37° WNW 02:13:05 15° SW
ALOS 4.0 02:07:05 10° NNE 02:11:10 29° E 02:15:14 10° SSE
Meteor 1-28 Rocket 4.1 02:10:52 17° SSW 02:13:04 31° W 02:16:27 10° NNW
Cosmos 1975 Rocket 3.9 02:11:29 17° SW 02:14:23 35° WNW 02:18:28 10° N
Resurs 1-4 Rocket 3.4 02:12:07 10° N 02:16:27 27° WNW 02:20:23 12° WSW
USA 306 3.1 02:13:37 17° SW 02:16:43 57° SE 02:20:49 10° ENE
USA 307 3.3 02:13:44 16° SSW 02:16:49 50° SE 02:20:54 10° ENE
Cosmos 1271 Rocket 3.2 02:16:07 10° N 02:19:52 62° ENE 02:23:38 10° SSE
COSMOS 2441 4.4 02:19:17 10° N 02:24:10 71° WNW 02:28:59 10° SSW
Helios 1B rocket 2.8 02:20:35 10° NNE 02:24:39 63° ESE 02:28:40 10° S
Cosmos 2074 Rocket 4.2 02:19:06 10° NNW 02:25:13 55° W 02:31:19 10° SSW
Cosmos 2219 Rocket 4.2 02:22:43 10° W 02:26:24 18° NW 02:30:05 10° N
NOSS 3 (A) 3.4 02:27:13 23° SSW 02:27:57 50° SE 02:29:36 10° NE
Cosmos 2228 3.5 02:23:47 10° N 02:28:11 65° E 02:32:29 10° SSE
MOS 1 Rocket 4.5 02:26:10 13° SW 02:28:41 21° W 02:31:56 10° NW
CZ-4C R/B 3.9 02:23:03 10° WNW 02:29:16 28° WSW 02:36:09 10° SSW
SeaSat 1 3.6 02:25:22 10° NE 02:30:00 39° ESE 02:34:36 10° S
COSMOS 2428 4.5 02:27:10 10° W 02:31:26 21° NW 02:35:43 10° N
Cosmos 2184 Rocket 4.3 02:27:01 10° NNW 02:33:03 50° W 02:39:01 10° SSW
CZ-2C R/B 3.4 02:28:50 10° NNE 02:33:52 49° E 02:38:47 10° S
Cosmos 1269 Rocket 4.3 02:32:39 10° NNW 02:37:40 45° WSW 02:42:39 10° S
Cosmos 1455 2.9 02:38:22 10° NNW 02:41:45 33° W 02:45:06 10° SSW
Cosmos 2237 Rocket 3.2 02:39:19 10° WSW 02:44:32 36° NW 02:49:47 10° NNE
ADEOS II 3.3 02:40:26 10° N 02:44:50 28° WNW 02:49:14 10° WSW
USA 308 2.9 02:42:41 10° SW 02:46:53 80° SE 02:51:05 10° ENE
BREEZE-M DEB (TANK) 3.6 02:38:06 10° W 02:46:53 69° N 02:49:56 10° ENE
Cosmos 2084 Rocket 3.2 02:43:33 10° SW 02:47:23 76° SE 02:51:12 10° NE
Cosmos 1703 3.3 02:43:29 10° S 02:47:25 83° W 02:51:23 10° N
Lacrosse 5 2.4 02:48:45 10° SSW 02:53:41 52° SE 02:58:39 10° ENE
Cosmos 2297 3.8 02:48:35 10° NNW 02:54:18 65° WSW 02:59:57 10° SSE
IDEFIX/ARIANE 42P 3.8 02:52:03 10° N 02:56:24 27° WNW 03:00:45 10° WSW
PAYLOAD A 4.0 02:51:55 10° NNE 02:56:38 75° ESE 03:01:22 10° S
USA 215 4.1 02:51:16 10° E 02:57:35 54° NNE 03:03:55 10° NW
Cosmos 614 Rocket 4.0 02:52:47 10° NNW 02:57:57 67° WSW 03:03:05 10° S
Cosmos 962 Rocket 4.5 02:55:35 10° NNW 03:01:43 73° W 03:07:48 10° S
CZ-3 R/B 4.5 02:28:28 10° WSW 03:03:29 39° S 03:14:01 10° ESE
